Elbow Lake, MN

9:18 AM CDT on July 24, 2016 (GMT -0500)
Elbow Lake

Weather History for KY63 - October, 2012

Change the Weather History Date:

Sunday, October 14, 2012

  Actual Average (KFFM) Record (KFFM)
Temperature  
Mean Temperature 43 °F -  
Max Temperature 53 °F 56 °F 82 °F (1962)
Min Temperature 33 °F 36 °F 20 °F (1979)
Degree Days  
Heating Degree Days 22    
Moisture  
Dew Point 33 °F    
Average Humidity 70    
Maximum Humidity 93    
Minimum Humidity 44    
Precipitation  
Precipitation 0.00 in - - ()
Sea Level Pressure  
Sea Level Pressure 29.87 in    
Wind  
Wind Speed 10 mph (NNW)    
Max Wind Speed 17 mph    
Max Gust Speed 21 mph    
Visibility 10 miles    
Events      
Averages and records for this station are not official NWS values.
T = Trace of Precipitation, MM = Missing Value Source: NWS Daily Summary

Daily Weather History Graph

Daily Weather History Graph

Search for Another Location

Airport or City:

Trip Planner

Search our weather history database for the weather conditions in past years. The results will help you decide how hot, cold, wet, or windy it might be!

Date:

Astronomy

Oct. 14, 2012 Rise Set
Actual Time 7:40 AM CDT 6:38 PM CDT
Civil Twilight 7:10 AM CDT 7:08 PM CDT
Nautical Twilight 6:35 AM CDT 7:43 PM CDT
Astronomical Twilight 6:00 AM CDT 8:17 PM CDT
Moon 6:39 AM CDT (10/14) 5:58 PM CDT (10/14)
Length of Visible Light 11h 58m
Length of Day
10h 58m
Waning Crescent, 1% of the Moon is Illuminated
Oct 14
Waning Crescent
Oct 15
New
Oct 21
First Quarter
Oct 29
Full
Nov 6
Last Quarter

Hourly Weather History & Observations

Time (CDT) Temp. Windchill Dew Point Humidity Pressure Visibility Wind Dir Wind Speed Gust Speed Precip Events Conditions
12:15 AM 42.8 °F 38.0 °F 33.8 °F 70% 29.79 in 10.0 mi NNW 8.1 mph - N/A   Clear
12:35 AM 42.8 °F 37.5 °F 33.8 °F 70% 29.79 in 10.0 mi NNW 9.2 mph - N/A   Clear
12:55 AM 41.0 °F 34.7 °F 33.8 °F 76% 29.78 in 10.0 mi NW 10.4 mph - N/A   Clear
1:15 AM 41.0 °F 34.3 °F 33.8 °F 76% 29.78 in 10.0 mi NW 11.5 mph - N/A   Clear
1:35 AM 41.0 °F 34.7 °F 32.0 °F 70% 29.78 in 10.0 mi NNW 10.4 mph - N/A   Clear
1:55 AM 41.0 °F 34.7 °F 32.0 °F 70% 29.78 in 10.0 mi NNW 10.4 mph - N/A   Clear
2:15 AM 41.0 °F 34.7 °F 32.0 °F 70% 29.79 in 10.0 mi NNW 10.4 mph - N/A   Clear
2:35 AM 39.2 °F 33.0 °F 32.0 °F 75% 29.79 in 10.0 mi NNW 9.2 mph - N/A   Clear
2:55 AM 37.4 °F 32.1 °F 32.0 °F 81% 29.80 in 10.0 mi NNW 6.9 mph - N/A   Clear
3:15 AM 35.6 °F 28.6 °F 32.0 °F 87% 29.81 in 10.0 mi NW 9.2 mph - N/A   Clear
3:35 AM 35.6 °F 28.0 °F 32.0 °F 87% 29.81 in 10.0 mi NW 10.4 mph - N/A   Clear
3:55 AM 35.6 °F 29.2 °F 32.0 °F 87% 29.81 in 10.0 mi NNW 8.1 mph - N/A   Clear
4:35 AM 35.6 °F 28.0 °F 32.0 °F 87% 29.81 in 10.0 mi NNW 10.4 mph - N/A   Clear
4:55 AM 35.6 °F 28.6 °F 32.0 °F 87% 29.83 in 10.0 mi NNW 9.2 mph - N/A   Clear
5:15 AM 35.6 °F 27.5 °F 32.0 °F 87% 29.83 in 10.0 mi NNW 11.5 mph - N/A   Clear
5:35 AM 35.6 °F 28.6 °F 32.0 °F 87% 29.84 in 10.0 mi NNW 9.2 mph - N/A   Clear
5:55 AM 35.6 °F 28.0 °F 32.0 °F 87% 29.84 in 10.0 mi NNW 10.4 mph - N/A   Clear
6:15 AM 35.6 °F 28.0 °F 32.0 °F 87% 29.85 in 10.0 mi NW 10.4 mph - N/A   Clear
6:35 AM 35.6 °F 27.5 °F 32.0 °F 87% 29.86 in 10.0 mi NW 11.5 mph - N/A   Clear
6:55 AM 35.6 °F 28.0 °F 32.0 °F 87% 29.86 in 10.0 mi NW 10.4 mph - N/A   Clear
7:15 AM 35.6 °F 28.0 °F 32.0 °F 87% 29.86 in 10.0 mi NNW 10.4 mph - N/A   Clear
7:35 AM 33.8 °F 26.4 °F 32.0 °F 93% 29.86 in 10.0 mi NW 9.2 mph - N/A   Clear
7:55 AM 33.8 °F 27.0 °F 32.0 °F 93% 29.86 in 10.0 mi NW 8.1 mph - N/A   Clear
8:15 AM 33.8 °F 26.4 °F 32.0 °F 93% 29.86 in 10.0 mi NW 9.2 mph - N/A   Clear
9:15 AM 35.6 °F 28.0 °F 32.0 °F 87% 29.88 in 10.0 mi NW 10.4 mph - N/A   Clear
9:35 AM 35.6 °F 27.1 °F 32.0 °F 87% 29.88 in 10.0 mi NW 12.7 mph 18.4 mph N/A   Clear
9:55 AM 37.4 °F 27.8 °F 32.0 °F 81% 29.89 in 10.0 mi NW 17.3 mph - N/A   Clear
10:15 AM 39.2 °F 30.8 °F 32.0 °F 75% 29.88 in 10.0 mi NW 15.0 mph - N/A   Clear
10:35 AM 41.0 °F 33.1 °F 32.0 °F 70% 29.89 in 10.0 mi NNW 15.0 mph - N/A   Clear
10:55 AM 41.0 °F 33.9 °F 32.0 °F 70% 29.89 in 10.0 mi NNW 12.7 mph 18.4 mph N/A   Clear
11:15 AM 42.8 °F 35.4 °F 33.8 °F 70% 29.89 in 10.0 mi NNW 15.0 mph - N/A   Clear
11:35 AM 44.6 °F 37.4 °F 32.0 °F 61% 29.89 in 10.0 mi NNW 16.1 mph 20.7 mph N/A   Clear
11:55 AM 44.6 °F 37.8 °F 32.0 °F 61% 29.89 in 10.0 mi NNW 15.0 mph 20.7 mph N/A   Clear
12:15 PM 46.4 °F 40.1 °F 32.0 °F 57% 29.89 in 10.0 mi NNW 15.0 mph - N/A   Scattered Clouds
12:35 PM 48.2 °F - 32.0 °F 54% 29.89 in 10.0 mi North 16.1 mph - N/A   Scattered Clouds
12:55 PM 50.0 °F - 32.0 °F 50% 29.88 in 10.0 mi North 13.8 mph - N/A   Clear
1:15 PM 50.0 °F - 32.0 °F 50% 29.88 in 10.0 mi NNW 12.7 mph 18.4 mph N/A   Clear
1:35 PM 51.8 °F - 33.8 °F 50% 29.88 in 10.0 mi North 12.7 mph - N/A   Clear
1:55 PM 51.8 °F - 32.0 °F 47% 29.88 in 10.0 mi NNW 13.8 mph - N/A   Clear
2:15 PM 53.6 °F - 32.0 °F 44% 29.88 in 10.0 mi NNW 13.8 mph - N/A   Clear
2:35 PM 53.6 °F - 32.0 °F 44% 29.88 in 10.0 mi NNW 11.5 mph - N/A   Clear
2:55 PM 53.6 °F - 32.0 °F 44% 29.88 in 10.0 mi NNW 15.0 mph 19.6 mph N/A   Clear
3:15 PM 53.6 °F - 32.0 °F 44% 29.88 in 10.0 mi NNW 13.8 mph 19.6 mph N/A   Clear
3:35 PM 53.6 °F - 32.0 °F 44% 29.87 in 10.0 mi NNW 12.7 mph - N/A   Clear
3:55 PM 53.6 °F - 33.8 °F 47% 29.88 in 10.0 mi NNW 15.0 mph - N/A   Clear
4:15 PM 53.6 °F - 33.8 °F 47% 29.88 in 10.0 mi NW 17.3 mph - N/A   Clear
4:35 PM 53.6 °F - 33.8 °F 47% 29.88 in 10.0 mi NW 16.1 mph 20.7 mph N/A   Clear
4:55 PM 53.6 °F - 33.8 °F 47% 29.88 in 10.0 mi NNW 12.7 mph 20.7 mph N/A   Clear
5:15 PM 53.6 °F - 35.6 °F 51% 29.89 in 10.0 mi NNW 11.5 mph - N/A   Clear
5:35 PM 51.8 °F - 35.6 °F 54% 29.89 in 10.0 mi NNW 13.8 mph 17.3 mph N/A   Clear
5:55 PM 51.8 °F - 35.6 °F 54% 29.89 in 10.0 mi NNW 12.7 mph - N/A   Clear
6:15 PM 51.8 °F - 35.6 °F 54% 29.89 in 10.0 mi NNW 10.4 mph - N/A   Clear
6:35 PM 50.0 °F - 35.6 °F 58% 29.89 in 10.0 mi NNW 9.2 mph - N/A   Clear
6:55 PM 50.0 °F - 35.6 °F 58% 29.89 in 10.0 mi NNW 9.2 mph - N/A   Clear
7:15 PM 48.2 °F - 35.6 °F 62% 29.89 in 10.0 mi NNW 8.1 mph - N/A   Clear
7:35 PM 46.4 °F 41.9 °F 35.6 °F 66% 29.90 in 10.0 mi NNW 9.2 mph - N/A   Clear
7:55 PM 46.4 °F 41.9 °F 35.6 °F 66% 29.91 in 10.0 mi NNW 9.2 mph - N/A   Clear
8:15 PM 46.4 °F 42.4 °F 35.6 °F 66% 29.91 in 10.0 mi North 8.1 mph - N/A   Clear
8:35 PM 44.6 °F 40.2 °F 33.8 °F 66% 29.92 in 10.0 mi North 8.1 mph - N/A   Clear
8:55 PM 42.8 °F 38.6 °F 33.8 °F 70% 29.92 in 10.0 mi North 6.9 mph - N/A   Clear
9:15 PM 41.0 °F 36.4 °F 33.8 °F 76% 29.92 in 10.0 mi North 6.9 mph - N/A   Clear
9:35 PM 41.0 °F 37.1 °F 33.8 °F 76% 29.92 in 10.0 mi North 5.8 mph - N/A   Clear
9:55 PM 41.0 °F 36.4 °F 33.8 °F 76% 29.92 in 10.0 mi North 6.9 mph - N/A   Clear
10:15 PM 41.0 °F 37.1 °F 33.8 °F 76% 29.92 in 10.0 mi North 5.8 mph - N/A   Clear
10:35 PM 41.0 °F 37.1 °F 33.8 °F 76% 29.92 in 10.0 mi NNE 5.8 mph - N/A   Clear
10:55 PM 37.4 °F 32.1 °F 33.8 °F 87% 29.92 in 10.0 mi North 6.9 mph - N/A   Clear
11:15 PM 41.0 °F 39.0 °F 33.8 °F 76% 29.92 in 10.0 mi North 3.5 mph - N/A   Clear
11:35 PM 37.4 °F - 33.8 °F 87% 29.92 in 10.0 mi Calm Calm - N/A   Clear
11:55 PM 37.4 °F - 33.8 °F 87% 29.93 in 10.0 mi Calm Calm - N/A   Clear